When you browse on this site, cookies collect data to enhance your experience and personalize the content and advertising you see.
Visit our Privacy Policy to learn more. By continuing to use the site, you agree to this use of cookies and data.
  • En España
  • Lista de países
  • Para 7 días
  • Temperatura del agua
  • El tiempo en el mapa
  • Informadores
  • user-avatar
    Iniciar sesión

    Tiempo cada hora Manika

    Hoy, 26 Febrero, Miércoles

    Tiempo Temperatura Precipitaciones Viento Presión Humedad
    00:00 +16°C° 0 mm 0 mps 679 mmHg 91%
    01:00 +16°C° 0 mm 0 mps 679 mmHg 92%
    02:00 +16°C° 0 mm 1 mps 678 mmHg 94%
    03:00 +15°C° 0 mm 0 mps 678 mmHg 95%
    04:00 +15°C° 0 mm 0 mps 678 mmHg 95%
    05:00 +14°C° 0 mm 0 mps 678 mmHg 96%
    06:00 +16°C° 0 mm 0 mps 678 mmHg 90%
    07:00 +20°C° 0 mm 1 mps 679 mmHg 85%
    08:00 +22°C° 0 mm 1 mps 680 mmHg 80%
    09:00 +24°C° 0 mm 1 mps 680 mmHg 72%
    10:00 +25°C° 0 mm 1 mps 680 mmHg 64%
    11:00 +27°C° 0 mm 1 mps 680 mmHg 56%
    12:00 +28°C° 0 mm 1 mps 680 mmHg 53%
    13:00 +28°C° 0 mm 1 mps 679 mmHg 50%
    14:00 +29°C° 0 mm 2 mps 679 mmHg 49%
    15:00 +28°C° 0 mm 2 mps 678 mmHg 54%
    16:00 +27°C° 0 mm 2 mps 678 mmHg 60%
    17:00 +26°C° 0 mm 2 mps 678 mmHg 66%
    18:00 +24°C° 0 mm 2 mps 678 mmHg 74%
    19:00 +21°C° 0 mm 2 mps 678 mmHg 83%
    20:00 +20°C° 0 mm 1 mps 678 mmHg 92%
    21:00 +20°C° 0 mm 1 mps 678 mmHg 93%
    22:00 +19°C° 0 mm 1 mps 678 mmHg 94%
    23:00 +19°C° 0 mm 1 mps 678 mmHg 96%

    Mañana, 27 Febrero, Jueves

    Tiempo Temperatura Precipitaciones Viento Presión Humedad
    00:00 +19°C° 0 mm 1 mps 678 mmHg 96%
    01:00 +18°C° 0 mm 1 mps 678 mmHg 96%
    02:00 +18°C° 0 mm 1 mps 677 mmHg 96%
    03:00 +18°C° 0 mm 1 mps 677 mmHg 96%
    04:00 +18°C° 0 mm 1 mps 677 mmHg 96%
    05:00 +15°C° 0 mm 0 mps 677 mmHg 96%
    06:00 +17°C° 0 mm 0 mps 678 mmHg 90%
    07:00 +19°C° 0 mm 0 mps 679 mmHg 84%
    08:00 +21°C° 0 mm 0 mps 679 mmHg 78%
    09:00 +24°C° 0 mm 0 mps 680 mmHg 69%
    10:00 +26°C° 0 mm 0 mps 680 mmHg 60%
    11:00 +29°C° 0 mm 0 mps 680 mmHg 51%
    12:00 +31°C° 0 mm 1 mps 680 mmHg 48%
    13:00 +31°C° 0 mm 1 mps 679 mmHg 46%
    14:00 +31°C° 0 mm 1 mps 679 mmHg 43%
    15:00 +30°C° 0 mm 1 mps 678 mmHg 49%
    16:00 +29°C° 0 mm 2 mps 678 mmHg 54%
    17:00 +28°C° 0 mm 2 mps 677 mmHg 60%
    18:00 +26°C° 0 mm 2 mps 677 mmHg 67%
    19:00 +23°C° 0 mm 2 mps 677 mmHg 75%
    20:00 +20°C° 0 mm 2 mps 677 mmHg 83%
    21:00 +20°C° 0 mm 2 mps 677 mmHg 86%
    22:00 +19°C° 0 mm 2 mps 678 mmHg 89%
    23:00 +20°C° 0 mm 1 mps 678 mmHg 92%

    Pasado mañana, 28 Febrero, Viernes

    Tiempo Temperatura Precipitaciones Viento Presión Humedad
    00:00 +19°C° 0 mm 1 mps 678 mmHg 93%
    01:00 +19°C° 0 mm 1 mps 677 mmHg 95%
    02:00 +19°C° 0 mm 1 mps 677 mmHg 96%
    03:00 +19°C° 0 mm 1 mps 677 mmHg 95%
    04:00 +19°C° 0 mm 1 mps 677 mmHg 95%
    05:00 +18°C° 0 mm 1 mps 677 mmHg 95%
    06:00 +20°C° 0 mm 1 mps 678 mmHg 87%
    07:00 +20°C° 0 mm 0 mps 678 mmHg 80%
    08:00 +22°C° 0 mm 0 mps 679 mmHg 72%
    09:00 +26°C° 0 mm 1 mps 679 mmHg 63%
    10:00 +28°C° 0 mm 2 mps 680 mmHg 54%
    11:00 +29°C° 0 mm 2 mps 680 mmHg 45%
    12:00 +29°C° 0 mm 2 mps 679 mmHg 44%
    13:00 +30°C° 0 mm 3 mps 679 mmHg 44%
    14:00 +30°C° 0 mm 3 mps 678 mmHg 44%
    15:00 +29°C° 0 mm 3 mps 678 mmHg 50%
    16:00 +28°C° 0 mm 3 mps 677 mmHg 56%
    17:00 +27°C° 0 mm 3 mps 677 mmHg 62%
    18:00 +25°C° 0 mm 3 mps 677 mmHg 71%
    19:00 +23°C° 0 mm 2 mps 678 mmHg 80%
    20:00 +20°C° 0 mm 2 mps 678 mmHg 89%
    21:00 +20°C° 0 mm 2 mps 679 mmHg 91%
    22:00 +19°C° 0 mm 2 mps 679 mmHg 92%
    23:00 +20°C° 0 mm 1 mps 679 mmHg 94%

    29 Febrero, Sábado

    Tiempo Temperatura Precipitaciones Viento Presión Humedad
    00:00 +20°C° 0 mm 1 mps 679 mmHg 95%
    01:00 +19°C° 0 mm 1 mps 679 mmHg 96%
    02:00 +19°C° 0 mm 1 mps 678 mmHg 97%
    03:00 +20°C° 0 mm 1 mps 678 mmHg 96%
    04:00 +20°C° 0 mm 1 mps 679 mmHg 95%
    05:00 +20°C° 0 mm 1 mps 679 mmHg 95%
    06:00 +21°C° 0.1 mm 1 mps 679 mmHg 92%
    07:00 +20°C° 0.1 mm 2 mps 679 mmHg 89%
    08:00 +21°C° 0.1 mm 2 mps 680 mmHg 86%
    09:00 +24°C° 0.1 mm 2 mps 680 mmHg 78%
    10:00 +26°C° 0.1 mm 3 mps 680 mmHg 70%
    11:00 +27°C° 0.1 mm 3 mps 681 mmHg 62%
    12:00 +28°C° 0.1 mm 3 mps 680 mmHg 58%
    13:00 +28°C° 0.1 mm 3 mps 680 mmHg 55%
    14:00 +29°C° 0.1 mm 3 mps 679 mmHg 52%
    15:00 +27°C° 0.3 mm 3 mps 679 mmHg 62%
    16:00 +26°C° 0.3 mm 4 mps 678 mmHg 72%
    17:00 +23°C° 0.3 mm 4 mps 678 mmHg 82%
    18:00 +22°C° 0.3 mm 3 mps 678 mmHg 87%
    19:00 +21°C° 0.3 mm 2 mps 679 mmHg 91%
    20:00 +20°C° 0.3 mm 1 mps 679 mmHg 96%
    21:00 +20°C° 0.2 mm 1 mps 680 mmHg 96%
    22:00 +20°C° 0.2 mm 1 mps 680 mmHg 97%
    23:00 +20°C° 0.2 mm 1 mps 680 mmHg 97%

    1 Marzo, Domingo

    Tiempo Temperatura Precipitaciones Viento Presión Humedad
    00:00 +20°C° 0.4 mm 1 mps 679 mmHg 97%
    01:00 +20°C° 0.4 mm 1 mps 679 mmHg 97%
    02:00 +20°C° 0.4 mm 1 mps 678 mmHg 98%
    03:00 +20°C° 0.2 mm 1 mps 678 mmHg 97%
    04:00 +20°C° 0.2 mm 1 mps 679 mmHg 97%
    05:00 +19°C° 0.2 mm 1 mps 679 mmHg 97%
    06:00 +19°C° 0 mm 1 mps 679 mmHg 97%
    07:00 +20°C° 0 mm 1 mps 679 mmHg 96%
    08:00 +20°C° 0 mm 1 mps 679 mmHg 95%
    09:00 +20°C° 0.1 mm 1 mps 679 mmHg 93%
    10:00 +21°C° 0.1 mm 1 mps 679 mmHg 90%
    11:00 +22°C° 0.1 mm 1 mps 679 mmHg 87%
    12:00 +23°C° 0.2 mm 1 mps 679 mmHg 83%
    13:00 +23°C° 0.2 mm 1 mps 678 mmHg 79%
    14:00 +24°C° 0.2 mm 2 mps 678 mmHg 76%
    15:00 +24°C° 0.2 mm 2 mps 677 mmHg 77%
    16:00 +24°C° 0.2 mm 2 mps 677 mmHg 79%
    17:00 +24°C° 0.2 mm 2 mps 677 mmHg 81%
    18:00 +21°C° 0.1 mm 2 mps 677 mmHg 85%
    19:00 +21°C° 0.1 mm 1 mps 677 mmHg 90%
    20:00 +20°C° 0.1 mm 1 mps 677 mmHg 94%
    21:00 +20°C° 0 mm 1 mps 678 mmHg 94%
    22:00 +19°C° 0 mm 1 mps 678 mmHg 95%
    23:00 +17°C° 0 mm 0 mps 678 mmHg 95%

    2 Marzo, Lunes

    Tiempo Temperatura Precipitaciones Viento Presión Humedad
    00:00 +17°C° 0 mm 0 mps 678 mmHg 96%
    01:00 +18°C° 0 mm 1 mps 677 mmHg 96%
    02:00 +18°C° 0 mm 1 mps 677 mmHg 97%
    03:00 +16°C° 0 mm 0 mps 677 mmHg 97%
    04:00 +16°C° 0 mm 0 mps 677 mmHg 97%
    05:00 +15°C° 0 mm 0 mps 677 mmHg 97%
    06:00 +17°C° 0 mm 0 mps 677 mmHg 92%
    07:00 +19°C° 0 mm 0 mps 678 mmHg 87%
    08:00 +20°C° 0 mm 0 mps 679 mmHg 82%
    09:00 +25°C° 0 mm 1 mps 679 mmHg 73%
    10:00 +27°C° 0 mm 1 mps 679 mmHg 64%
    11:00 +30°C° 0 mm 1 mps 679 mmHg 55%
    12:00 +30°C° 0 mm 1 mps 679 mmHg 52%
    13:00 +30°C° 0 mm 1 mps 678 mmHg 49%
    14:00 +31°C° 0 mm 1 mps 678 mmHg 46%
    15:00 +30°C° 0 mm 1 mps 677 mmHg 51%
    16:00 +29°C° 0 mm 1 mps 677 mmHg 57%
    17:00 +28°C° 0 mm 2 mps 677 mmHg 62%
    18:00 +26°C° 0 mm 2 mps 677 mmHg 72%
    19:00 +24°C° 0 mm 2 mps 677 mmHg 83%
    20:00 +20°C° 0 mm 2 mps 677 mmHg 93%
    21:00 +20°C° 0 mm 2 mps 677 mmHg 94%
    22:00 +20°C° 0 mm 2 mps 677 mmHg 94%
    23:00 +21°C° 0 mm 1 mps 678 mmHg 95%
    Mostrar más